weather.gov     
National Weather Service

Terminal Aerodrome Forecast
NWS Homepage
This page is being discontinued on March 12, 2014.
The same data is available at this site. Please update your bookmarks.
Thank you, and we apologize for the inconvenience.
Please send an email to SR-SRH.Webmaster@noaa.gov with any concerns.


Current Version
Previous Version:    01  02  03  04  05  06  07  08  09  10  11  12  13  14  
[Printable]
476
FTUS41 KGYX 010531
TAFRKD
TAF
KRKD 010531Z 0106/0206 27003KT 3SM BR OVC003
     FM011200 28005KT 1SM BR BKN002
     FM011300 29005KT 3SM BR SKC
     FM011500 29004KT P6SM SKC
     FM012000 21006KT 3SM BR SKC
     FM020000 22003KT 1 1/2SM BR OVC001
     FM020300 16002KT 1SM BR VV001
      AMD LTD TO CLD VIS AND WIND=




476
FTUS41 KGYX 010531
TAFRKD
TAF
KRKD 010531Z 0106/0206 27003KT 3SM BR OVC003
     FM011200 28005KT 1SM BR BKN002
     FM011300 29005KT 3SM BR SKC
     FM011500 29004KT P6SM SKC
     FM012000 21006KT 3SM BR SKC
     FM020000 22003KT 1 1/2SM BR OVC001
     FM020300 16002KT 1SM BR VV001
      AMD LTD TO CLD VIS AND WIND=


U.S. Dept. of Commerce
NOAA National Weather Service
1325 East West Highway
Silver Spring, MD 20910
E-mail: w-nws.webmaster@noaa.gov
Page last modified: May 16, 2007
NATIONAL WEATHER SERVICE: for Safety, for Work, for Fun - FOR LIFE